User: anonymous   Login
Location: Mactaquac Provincial Park
(45.9573°N, 66.8897°W)
Time: 20:45:25
(UTC-04:00)
Language:

CENTAUR R/B - Orbit

View from above orbital plane
View from above orbital plane
View from above satellite
View from above satellite

Ground track
Ground track

The orbit data is extracted from the following two-line orbital elements,

1 26906U 01040B   17011.02232813 0.00000000  00000-0  00000-0 0    02
2 26906  63.4545  16.2065 0339000 342.4072  17.5928 13.44001557    01
Epoch (UTC): 11 January 2017 00:32:09
Eccentricity: 0.0339000
inclination: 63.4545°
perigee height: 841 km
apogee height: 1348 km
right ascension of ascending node: 16.2065°
argument of perigee: 342.4072°
revolutions per day: 13.44001557
mean anomaly at epoch: 17.5928°
orbit number at epoch: 0

The dashed part of the orbit path shows where the satellite is in the earth's shadow,  

DLR